User: anonymous   Login
Location: Marse
(42.1502°N, 110.9866°W)
Time: 21:05:46
(UTC+00:00)
Language:

ZACube-1 - Orbit

View from above orbital plane
View from above orbital plane
View from above satellite
View from above satellite

Ground track
Ground track

The orbit data is extracted from the following two-line orbital elements,

1 39417U 13066B   22178.49253779  .00001457  00000-0  18319-3 0  9998
2 39417  97.6367 149.5359 0058240  13.4179 346.8568 14.82377476464614
Epoch (UTC): 27 June 2022 11:49:15
Eccentricity: 0.0058240
inclination: 97.6367°
perigee height: 581 km
apogee height: 662 km
right ascension of ascending node: 149.5359°
argument of perigee: 13.4179°
revolutions per day: 14.82377476
mean anomaly at epoch: 346.8568°
orbit number at epoch: 46461

The dashed part of the orbit path shows where the satellite is in the earth's shadow,  

DLR